Location: Unspecified
(0.0000°N, 0.0000°E)
Time: 09:45:07
(UTC+01:00)

Ariane H10 - Visible Passes

Search period start: 21 February 2018 00:00
Search period end: 03 March 2018 00:00
Orbit: 406 x 35063 km, 4.4° (Epoch: 20 February)

Date Brightness Start Highest point End Pass type
(mag) Time Alt. Az. Time Alt. Az. Time Alt. Az.
21 Feb 11.6 20:35:42 10° W 21:58:46 25° W 00:54:28 10° W visible
22 Feb 4.1 05:41:39 31° W 05:45:43 62° S 05:49:09 10° ESE visible
22 Feb 7.6 16:37:28 10° W 18:22:56 81° NW 01:39:57 52° W visible
23 Feb 7.2 13:06:53 10° W 21:04:29 73° ENE 22:22:35 55° E visible
24 Feb 11.7 21:27:50 10° W 22:27:27 16° W 00:01:32 10° W visible
25 Feb 3.7 06:10:10 18° W 06:15:12 52° S 06:18:05 10° ESE visible
25 Feb 7.3 17:08:32 10° W 18:55:32 71° WNW 02:08:47 41° W visible
26 Feb 7.6 13:36:06 10° W 21:38:34 83° NE 22:51:26 66° E visible
28 Feb 3.5 06:39:25 10° W 06:44:40 43° S 06:47:10 10° ESE visible
28 Feb 6.9 17:40:25 10° W 19:27:00 61° W 03:21:08 10° E visible
01 Mar 8.0 14:05:31 10° W 20:45:14 85° N 23:20:18 78° E visible
02 Mar 5.6 10:38:41 10° WSW 18:29:48 36° E 20:02:57 13° E visible
